Location: Banff
(51.1667°N, 115.5667°W)
Time: 10:24:22
(UTC+00:00)

A-11 Canister half - Pass Details

Date: 27 November 2020
Orbit: 1524 x 1684 km, 47.3° (Epoch: 20 January)

Event Time Altitude Azimuth Distance (km) Brightness Sun altitude
Rises 13:22:45 0° 212° (SSW) 4,928 11.5 -17.5°
Reaches altitude 10° 13:26:13 10° 205° (SSW) 3,939 11.0 -17.0°
Maximum altitude 13:35:09 37° 142° (SE) 2,384 10.5 -15.6°
Drops below altitude 10° 13:43:55 10° 80° (E) 3,881 12.2 -14.3°
Sets 13:47:18 0° 73° (ENE) 4,848 12.6 -13.8°
